Middleton, WI

1:55 PM CDT on June 28, 2017 (GMT -0500)
Middleton

Weather History for KC29 - January, 2013

Change the Weather History Date:

Tuesday, January 8, 2013

  Actual Average (KMSN) Record (KMSN)
Temperature  
Mean Temperature 26 °F -  
Max Temperature 39 °F 21 °F 54 °F (2003)
Min Temperature 14 °F 2 °F -23 °F (1971)
Degree Days  
Heating Degree Days 38    
Moisture  
Dew Point 25 °F    
Average Humidity 78    
Maximum Humidity 96    
Minimum Humidity 65    
Precipitation  
Precipitation 0.00 in - - ()
Sea Level Pressure  
Sea Level Pressure 30.00 in    
Wind  
Wind Speed 5 mph (South)    
Max Wind Speed 17 mph    
Max Gust Speed 23 mph    
Visibility 8 miles    
Events      
Averages and records for this station are not official NWS values.
T = Trace of Precipitation, MM = Missing Value Source: NWS Daily Summary

Daily Weather History Graph

Daily Weather History Graph

Search for Another Location

Airport or City:

Trip Planner

Search our weather history database for the weather conditions in past years. The results will help you decide how hot, cold, wet, or windy it might be!

Date:

Astronomy

Jan. 08, 2013 Rise Set
Actual Time 7:29 AM CST 4:40 PM CST
Civil Twilight 6:57 AM CST 5:12 PM CST
Nautical Twilight 6:21 AM CST 5:48 PM CST
Astronomical Twilight 5:47 AM CST 6:22 PM CST
Moon 4:01 AM CST (1/8) 1:43 PM CST (1/8)
Length of Visible Light 10h 15m
Length of Day
9h 11m
Waning Crescent, 13% of the Moon is Illuminated
Jan 8
Waning Crescent
Jan 11
New
Jan 18
First Quarter
Jan 26
Full
Feb 3
Last Quarter

Hourly Weather History & Observations

Time (CST) Temp. Windchill Dew Point Humidity Pressure Visibility Wind Dir Wind Speed Gust Speed Precip Events Conditions
12:35 AM 32.0 °F 27.5 °F 24.4 °F 74% 30.04 in 10.0 mi SW 4.6 mph - N/A   Clear
12:55 AM 31.3 °F - 24.6 °F 76% 30.04 in 10.0 mi Calm Calm - N/A   Clear
1:15 AM 31.5 °F 28.1 °F 24.3 °F 75% 30.04 in 10.0 mi SSW 3.5 mph - N/A   Clear
1:35 AM 30.2 °F - 23.9 °F 77% 30.04 in 10.0 mi Calm Calm - N/A   Clear
1:55 AM 30.9 °F - 24.1 °F 76% 30.04 in 10.0 mi Calm Calm - N/A   Clear
2:15 AM 29.3 °F - 23.4 °F 78% 30.04 in 10.0 mi Calm Calm - N/A   Clear
2:35 AM 29.1 °F 25.4 °F 23.7 °F 80% 30.04 in 10.0 mi South 3.5 mph - N/A   Clear
2:55 AM 27.9 °F 24.0 °F 23.4 °F 83% 30.04 in 10.0 mi SSE 3.5 mph - N/A   Clear
3:15 AM 27.0 °F 21.6 °F 22.8 °F 84% 30.04 in 10.0 mi South 4.6 mph - N/A   Clear
3:35 AM 28.0 °F 24.2 °F 23.7 °F 84% 30.04 in 10.0 mi South 3.5 mph - N/A   Clear
3:55 AM 25.7 °F 21.5 °F 21.6 °F 84% 30.04 in 10.0 mi South 3.5 mph - N/A   Clear
4:15 AM 25.3 °F - 23.4 °F 92% 30.04 in 10.0 mi Calm Calm - N/A   Clear
4:35 AM 26.4 °F - 23.2 °F 88% 30.04 in 10.0 mi Calm Calm - N/A   Clear
4:55 AM 19.4 °F - 16.2 °F 87% 30.04 in 5.0 mi Calm Calm - N/A   Clear
5:15 AM 19.4 °F - 17.4 °F 92% 30.04 in 5.0 mi Calm Calm - N/A   Clear
5:35 AM 17.8 °F - 15.4 °F 91% 30.05 in 5.0 mi Calm Calm - N/A   Clear
6:15 AM 15.6 °F - 13.6 °F 92% 30.05 in 3.0 mi Calm Calm - N/A   Clear
6:35 AM 16.3 °F - 14.0 °F 90% 30.05 in 2.5 mi Calm Calm - N/A   Clear
6:55 AM 14.2 °F - 12.0 °F 91% 30.06 in 4.0 mi Calm Calm - N/A   Clear
7:15 AM 14.7 °F 9.0 °F 12.6 °F 91% 30.06 in 3.0 mi SE 3.5 mph - N/A   Clear
7:35 AM 15.8 °F - 13.8 °F 92% 30.07 in 2.5 mi Calm Calm - N/A   Clear
7:55 AM 16.3 °F - 14.0 °F 90% 30.07 in 2.5 mi Calm Calm - N/A   Clear
8:15 AM 17.2 °F - 15.4 °F 93% 30.07 in 1.8 mi Calm Calm - N/A   Unknown
8:35 AM 18.3 °F 10.2 °F 16.5 °F 93% 30.07 in 1.0 mi South 5.8 mph - N/A   Unknown
8:55 AM 26.1 °F - 25.2 °F 96% 30.07 in 4.0 mi Calm Calm - N/A   Clear
9:15 AM 26.4 °F 20.9 °F 25.5 °F 96% 30.07 in 4.0 mi South 4.6 mph - N/A   Clear
9:35 AM 27.0 °F - 26.1 °F 96% 30.07 in 5.0 mi Calm Calm - N/A   Clear
9:55 AM 28.8 °F 23.7 °F 27.9 °F 96% 30.07 in 5.0 mi South 4.6 mph - N/A   Clear
10:15 AM 30.6 °F 23.8 °F 29.7 °F 96% 30.06 in 7.0 mi SSW 6.9 mph - N/A   Clear
10:35 AM 32.7 °F 26.4 °F 25.9 °F 76% 30.06 in 7.0 mi SSW 6.9 mph - N/A   Clear
10:55 AM 34.2 °F 29.0 °F 25.5 °F 71% 30.05 in 7.0 mi SSW 5.8 mph - N/A   Clear
11:15 AM 35.1 °F 28.6 °F 25.7 °F 69% 30.04 in 7.0 mi SW 8.1 mph - N/A   Clear
11:35 AM 35.6 °F 30.7 °F 25.5 °F 67% 30.04 in 7.0 mi SW 5.8 mph - N/A   Clear
11:55 AM 36.0 °F 30.3 °F 25.5 °F 66% 30.03 in 10.0 mi SSW 6.9 mph - N/A   Clear
12:35 PM 36.9 °F 32.2 °F 26.2 °F 65% 30.02 in 10.0 mi South 5.8 mph - N/A   Clear
12:55 PM 36.5 °F 31.8 °F 26.1 °F 66% 30.01 in 10.0 mi South 5.8 mph - N/A   Clear
1:15 PM 37.2 °F 29.6 °F 26.4 °F 65% 30.00 in 10.0 mi SSW 11.5 mph - N/A   Clear
1:55 PM 37.2 °F 29.1 °F 27.1 °F 67% 29.99 in 10.0 mi South 12.7 mph - N/A   Clear
2:15 PM 38.3 °F 30.9 °F 27.5 °F 65% 29.99 in 10.0 mi South 11.5 mph - N/A   Clear
2:35 PM 38.7 °F 30.9 °F 28.2 °F 66% 29.99 in 10.0 mi South 12.7 mph 18.4 mph N/A   Clear
2:55 PM 37.8 °F 29.8 °F 28.4 °F 69% 30.00 in 10.0 mi South 12.7 mph - N/A   Clear
3:15 PM 37.9 °F 30.5 °F 28.9 °F 70% 29.99 in 10.0 mi South 11.5 mph - N/A   Clear
3:35 PM 37.4 °F 29.8 °F 28.9 °F 71% 29.98 in 10.0 mi SSE 11.5 mph - N/A   Clear
3:55 PM 37.6 °F 31.0 °F 29.3 °F 72% 29.97 in 10.0 mi SSE 9.2 mph - N/A   Clear
4:15 PM 37.9 °F 32.1 °F 29.3 °F 71% 29.97 in 10.0 mi SSE 8.1 mph - N/A   Clear
4:35 PM 37.2 °F 29.6 °F 29.1 °F 73% 29.96 in 10.0 mi SSE 11.5 mph 16.1 mph N/A   Clear
4:55 PM 37.2 °F 30.6 °F 29.3 °F 73% 29.95 in 10.0 mi SSE 9.2 mph - N/A   Clear
5:15 PM 37.4 °F 30.3 °F 29.8 °F 74% 29.94 in 10.0 mi SSE 10.4 mph - N/A   Clear
5:35 PM 37.2 °F 31.2 °F 29.8 °F 75% 29.94 in 10.0 mi SSE 8.1 mph - N/A   Clear
5:55 PM 37.8 °F 31.3 °F 30.0 °F 74% 29.94 in 10.0 mi South 9.2 mph - N/A   Clear
6:15 PM 38.3 °F 31.4 °F 30.2 °F 73% 29.93 in 10.0 mi South 10.4 mph - N/A   Clear
6:35 PM 38.1 °F 31.2 °F 30.2 °F 73% 29.93 in 10.0 mi South 10.4 mph 16.1 mph N/A   Clear
6:55 PM 37.9 °F 29.6 °F 30.0 °F 73% 29.93 in 10.0 mi South 13.8 mph - N/A   Clear
7:55 PM 37.6 °F 28.4 °F 29.5 °F 73% 29.95 in 10.0 mi SSW 16.1 mph - N/A   Mostly Cloudy
8:15 PM 37.8 °F 29.0 °F 29.5 °F 72% 29.94 in 10.0 mi SSW 15.0 mph 19.6 mph N/A   Mostly Cloudy
8:35 PM 38.3 °F 30.5 °F 29.3 °F 70% 29.94 in 10.0 mi SSW 12.7 mph - N/A   Scattered Clouds
8:55 PM 39.2 °F 30.8 °F 29.3 °F 68% 29.92 in 10.0 mi SSW 15.0 mph - N/A   Clear
9:15 PM 39.6 °F 31.3 °F 29.5 °F 67% 29.93 in 10.0 mi SSW 15.0 mph 21.9 mph N/A   Scattered Clouds
9:35 PM 39.7 °F 32.3 °F 29.8 °F 68% 29.93 in 10.0 mi SSW 12.7 mph 20.7 mph N/A   Overcast
9:55 PM 39.6 °F 32.5 °F 29.8 °F 68% 29.93 in 10.0 mi SSW 11.5 mph 19.6 mph N/A   Overcast
10:15 PM 39.2 °F 32.0 °F 30.0 °F 70% 29.92 in 10.0 mi SSW 11.5 mph - N/A   Overcast
10:35 PM 39.2 °F 31.6 °F 30.0 °F 70% 29.92 in 10.0 mi SSW 12.7 mph 18.4 mph N/A   Mostly Cloudy
10:55 PM 39.2 °F 30.2 °F 30.0 °F 70% 29.92 in 10.0 mi SW 17.3 mph 23.0 mph N/A   Scattered Clouds
11:15 PM 39.4 °F 31.8 °F 29.8 °F 69% 29.91 in 10.0 mi SW 12.7 mph 21.9 mph N/A   Scattered Clouds
11:35 PM 39.4 °F 31.4 °F 29.8 °F 69% 29.91 in 10.0 mi SW 13.8 mph - N/A   Clear
11:55 PM 39.2 °F 31.6 °F 29.8 °F 69% 29.91 in 10.0 mi SW 12.7 mph 18.4 mph N/A   Clear